User: anonymous   Login
Location: Bacharowice
(49.9333°N, 19.5833°E)
Time: 22:19:04
(UTC+00:00)
Language:

Cosmos 2344 - Orbit

View from above orbital plane
View from above orbital plane
View from above satellite
View from above satellite

Ground track
Ground track

The orbit data is extracted from the following two-line orbital elements,

1 24827U 97028A   21212.56055561 -.00000002  00000-0  52731-3 0  9994
2 24827  63.3257 311.7287 1038671  46.9688 332.3916 11.07970735977153
Epoch (UTC): 31 July 2021 13:27:12
Eccentricity: 0.1038671
inclination: 63.3257°
perigee height: 1238 km
apogee height: 3004 km
right ascension of ascending node: 311.7287°
argument of perigee: 46.9688°
revolutions per day: 11.07970735
mean anomaly at epoch: 332.3916°
orbit number at epoch: 97715

The dashed part of the orbit path shows where the satellite is in the earth's shadow,  

DLR